Tracking 17925 objects as of 22-January-2017
HD Live streaming from Space Station
objects crossing your sky now

COSMOS 2251 DEB

Track COSMOS 2251 DEB now!
10-day predictions


NORAD ID: 35451
Int'l Code: 1993-036AKV
Perigee: 568.2 km
Apogee: 719.4 km
Inclination: 73.9 °
Period: 97.5 minutes
Semi major axis: 7014 km
RCS: 0.0039 m2 (small)
Launch date: June 16, 1993
Source: Commonwealth of Independent States (former USSR) (CIS)
Launch site: PLESETSK MISSILE AND SPACE COMPLEX (PKMTR)

Note: This is SATELLITE DEBRIS
Your satellite tracking list
Your tracking list is empty





NASA's NSSDC Master Catalog

Two Line Element Set (TLE):
1 35451U 93036AKV 17019.98312080 +.00000515 +00000-0 +70277-4 0  9996
2 35451 073.9470 126.9306 0107767 064.0350 297.1879 14.77673874191304
Source of the keplerian elements: AFSPC